| time (UTC) | temp F | wind direction | speed MPH | gust MPH | rain 1hr in | rain 24hr in | rain mn in | humidity % | barometer mb |
| 20260904005027 | 70 | 0.0 | 0.0 | 0.00 | 0.06 | 0.02 | 44 | 1014.4 | |
| 20260904004527 | 70 | 0.0 | 0.0 | 0.00 | 0.06 | 0.02 | 44 | 1014.5 | |
| 20260904004027 | 70 | 0.0 | 0.0 | 0.00 | 0.06 | 0.02 | 44 | 1014.3 | |
| 20260904003527 | 71 | 0.0 | 0.0 | 0.00 | 0.06 | 0.02 | 43 | 1014.1 | |
| 20260904003027 | 71 | 0.0 | 0.0 | 0.00 | 0.06 | 0.02 | 44 | 1014.1 | |
| 20260904002527 | 71 | 0.0 | 0.0 | 0.00 | 0.06 | 0.02 | 44 | 1014.0 | |
| 20260904002107 | 71 | 0.0 | 0.0 | 0.00 | 0.06 | 0.02 | 44 | 1013.8 | |
| 20260904001527 | 71 | 0.0 | 0.0 | 0.00 | 0.06 | 0.02 | 44 | 1013.9 | |
| 20260904001027 | 71 | 0.0 | 0.0 | 0.00 | 0.06 | 0.02 | 44 | 1013.7 | |
| 20260904000527 | 71 | 0.0 | 0.0 | 0.00 | 0.06 | 0.02 | 43 | 1013.6 | |
| 20260904000047 | 71 | 0.0 | 0.0 | 0.00 | 0.06 | 0.02 | 43 | 1013.5 | |
| 20260903235527 | 72 | 0.0 | 0.0 | 0.00 | 0.06 | 0.02 | 43 | 1013.6 | |
| 20260903235026 | 72 | 0.0 | 0.0 | 0.00 | 0.06 | 0.02 | 43 | 1013.6 | |
| 20260903234546 | 72 | 0.0 | 0.0 | 0.00 | 0.06 | 0.02 | 43 | 1013.7 | |
| 20260903234027 | 72 | 0.0 | 0.0 | 0.00 | 0.06 | 0.02 | 43 | 1013.6 | |
| 20260903233546 | 72 | 0.0 | 0.0 | 0.00 | 0.06 | 0.02 | 43 | 1013.5 | |
| 20260903233027 | 72 | 0.0 | 0.0 | 0.00 | 0.06 | 0.02 | 43 | 1013.6 | |
| 20260903232526 | 72 | 0.0 | 0.0 | 0.00 | 0.06 | 0.02 | 43 | 1013.5 | |
| 20260903232027 | 73 | 0.0 | 0.0 | 0.00 | 0.06 | 0.02 | 43 | 1013.5 | |
| 20260903231526 | 73 | 0.0 | 0.0 | 0.00 | 0.06 | 0.02 | 43 | 1013.6 | |
| 20260903231026 | 73 | 0.0 | 0.0 | 0.00 | 0.06 | 0.02 | 43 | 1013.6 | |
| 20260903230526 | 73 | 0.0 | 0.0 | 0.00 | 0.06 | 0.02 | 43 | 1013.5 | |
| 20260903230047 | 73 | 0.0 | 0.0 | 0.00 | 0.06 | 0.02 | 43 | 1013.8 | |
| 20260903225526 | 74 | 0.0 | 0.0 | 0.00 | 0.06 | 0.02 | 43 | 1013.7 | |
| 20260903225026 | 74 | 0.0 | 0.0 | 0.00 | 0.06 | 0.02 | 43 | 1013.6 | |
| 20260903224526 | 74 | 0.0 | 0.0 | 0.00 | 0.06 | 0.02 | 42 | 1013.6 | |
| 20260903224046 | 74 | 0.0 | 0.0 | 0.00 | 0.06 | 0.02 | 42 | 1013.5 | |
| 20260903223526 | 74 | 0.0 | 0.0 | 0.00 | 0.06 | 0.02 | 42 | 1013.6 | |
| 20260903223027 | 74 | 0.0 | 0.0 | 0.00 | 0.06 | 0.02 | 42 | 1013.7 | |
| 20260903222546 | 74 | 0.0 | 0.0 | 0.01 | 0.06 | 0.02 | 42 | 1013.7 | |
| 20260903222026 | 74 | 0.0 | 0.0 | 0.01 | 0.06 | 0.02 | 42 | 1013.7 | |
| 20260903221526 | 74 | 0.0 | 0.0 | 0.02 | 0.06 | 0.02 | 42 | 1013.6 | |
| 20260903221026 | 75 | 0.0 | 0.0 | 0.02 | 0.06 | 0.02 | 42 | 1013.7 | |
| 20260903220526 | 75 | 0.0 | 0.0 | 0.02 | 0.06 | 0.02 | 41 | 1013.8 | |
| 20260903220026 | 75 | 0.0 | 0.0 | 0.02 | 0.06 | 0.02 | 41 | 1013.7 | |
| 20260903215546 | 75 | 0.0 | 0.0 | 0.02 | 0.06 | 0.02 | 40 | 1014.0 | |
| 20260903215026 | 75 | 0.0 | 0.0 | 0.02 | 0.06 | 0.02 | 40 | 1013.9 | |
| 20260903214606 | 75 | 0.0 | 2.0 | 0.02 | 0.06 | 0.02 | 40 | 1014.1 | |
| 20260903214026 | 75 | 359 | 2.0 | 4.0 | 0.02 | 0.06 | 0.02 | 40 | 1014.2 |
| 20260903213546 | 75 | 26 | 1.0 | 4.0 | 0.02 | 0.06 | 0.02 | 41 | 1014.1 |
| 20260903213026 | 75 | 0.0 | 1.0 | 0.02 | 0.06 | 0.02 | 41 | 1014.1 | |
| 20260903212526 | 75 | 0.0 | 0.0 | 0.01 | 0.05 | 0.01 | 41 | 1014.0 | |
| 20260903212026 | 76 | 0.0 | 0.0 | 0.01 | 0.05 | 0.01 | 41 | 1014.0 | |
| 20260903211526 | 76 | 0.0 | 0.0 | 0.00 | 0.04 | 0.00 | 40 | 1013.9 | |
| 20260903211026 | 76 | 0.0 | 0.0 | 0.00 | 0.04 | 0.00 | 40 | 1013.9 | |
| 20260903210526 | 76 | 0.0 | 0.0 | 0.00 | 0.04 | 0.00 | 40 | 1013.9 | |
| 20260903210046 | 76 | 0.0 | 0.0 | 0.00 | 0.04 | 0.00 | 40 | 1013.8 | |
| 20260903205546 | 76 | 0.0 | 0.0 | 0.00 | 0.04 | 0.00 | 40 | 1013.8 | |
| 20260903205046 | 76 | 0.0 | 0.0 | 0.00 | 0.04 | 0.00 | 40 | 1013.9 | |
| 20260903204546 | 76 | 0.0 | 0.0 | 0.00 | 0.04 | 0.00 | 41 | 1013.8 | |
| 20260903204046 | 76 | 0.0 | 0.0 | 0.00 | 0.04 | 0.00 | 40 | 1013.8 | |
| 20260903203526 | 76 | 0.0 | 0.0 | 0.00 | 0.04 | 0.00 | 40 | 1013.7 | |
| 20260903203026 | 76 | 0.0 | 0.0 | 0.00 | 0.04 | 0.00 | 40 | 1013.9 | |
| 20260903202526 | 76 | 0.0 | 0.0 | 0.00 | 0.04 | 0.00 | 39 | 1013.9 | |
| 20260903202026 | 76 | 0.0 | 0.0 | 0.00 | 0.04 | 0.00 | 38 | 1013.9 | |
| 20260903201546 | 77 | 0.0 | 0.0 | 0.00 | 0.04 | 0.00 | 38 | 1014.0 | |
| 20260903201026 | 77 | 0.0 | 0.0 | 0.00 | 0.04 | 0.00 | 37 | 1014.0 | |
| 20260903200526 | 77 | 0.0 | 0.0 | 0.00 | 0.04 | 0.00 | 38 | 1013.9 | |
| 20260903200503 | 77 | 0.0 | 0.0 | 0.00 | 0.04 | 0.04 | 36 | 1013.8 | |
| 20260903200444 | 78 | 0.0 | 0.0 | 0.00 | 0.04 | 0.04 | 34 | 1013.9 | |
| 20260903184027 | 78 | 110 | 1.0 | 4.0 | 0.00 | 0.04 | 0.04 | 33 | 1014.4 |
| 20260903183527 | 78 | 98 | 1.0 | 2.0 | 0.00 | 0.04 | 0.04 | 33 | 1014.5 |
| 20260903183027 | 77 | 0.0 | 3.0 | 0.00 | 0.04 | 0.04 | 33 | 1014.5 | |
| 20260903182527 | 77 | 100 | 1.0 | 2.0 | 0.00 | 0.04 | 0.04 | 35 | 1014.5 |
| 20260903182027 | 76 | 99 | 1.0 | 2.0 | 0.00 | 0.04 | 0.04 | 36 | 1014.7 |
| 20260903181846 | 75 | 0.0 | 1.0 | 0.00 | 0.04 | 0.04 | 36 | 1014.9 | |
| 20260903180547 | 75 | 0.0 | 2.0 | 0.00 | 0.04 | 0.04 | 36 | 1015.0 | |
| 20260903180027 | 75 | 0.0 | 1.0 | 0.00 | 0.04 | 0.04 | 38 | 1015.1 | |
| 20260903175527 | 75 | 102 | 1.0 | 3.0 | 0.00 | 0.04 | 0.04 | 37 | 1015.2 |
| 20260903175027 | 75 | 0.0 | 1.0 | 0.00 | 0.04 | 0.04 | 38 | 1015.1 | |
| 20260903174527 | 75 | 115 | 1.0 | 3.0 | 0.00 | 0.04 | 0.04 | 37 | 1015.1 |
| 20260903174027 | 75 | 0.0 | 1.0 | 0.00 | 0.04 | 0.04 | 37 | 1015.1 | |
| 20260903173527 | 75 | 50 | 1.0 | 2.0 | 0.00 | 0.04 | 0.04 | 37 | 1015.2 |
| 20260903173027 | 74 | 0.0 | 0.0 | 0.00 | 0.04 | 0.04 | 39 | 1015.1 | |
| 20260903172547 | 74 | 71 | 1.0 | 3.0 | 0.00 | 0.04 | 0.04 | 39 | 1015.1 |
| 20260903172027 | 74 | 73 | 1.0 | 2.0 | 0.00 | 0.04 | 0.04 | 39 | 1015.0 |
| 20260903171527 | 73 | 65 | 1.0 | 2.0 | 0.00 | 0.04 | 0.04 | 39 | 1015.0 |
| 20260903171027 | 73 | 0.0 | 2.0 | 0.00 | 0.04 | 0.04 | 39 | 1015.3 | |
| 20260903170527 | 73 | 0.0 | 2.0 | 0.00 | 0.04 | 0.04 | 40 | 1015.3 | |
| 20260903170027 | 73 | 6 | 2.0 | 5.0 | 0.00 | 0.04 | 0.04 | 39 | 1015.3 |
| 20260903165527 | 73 | 42 | 1.0 | 3.0 | 0.00 | 0.04 | 0.04 | 39 | 1015.4 |
| 20260903165027 | 73 | 27 | 2.0 | 5.0 | 0.00 | 0.04 | 0.04 | 39 | 1015.4 |
| 20260903164527 | 73 | 35 | 1.0 | 3.0 | 0.00 | 0.04 | 0.04 | 40 | 1015.6 |
| 20260903164027 | 73 | 55 | 1.0 | 2.0 | 0.00 | 0.04 | 0.04 | 41 | 1015.8 |
| 20260903163527 | 72 | 76 | 1.0 | 3.0 | 0.00 | 0.04 | 0.04 | 41 | 1015.7 |
| 20260903163027 | 72 | 0.0 | 1.0 | 0.00 | 0.04 | 0.04 | 42 | 1015.7 | |
| 20260903162527 | 72 | 82 | 1.0 | 4.0 | 0.00 | 0.04 | 0.04 | 42 | 1015.7 |
| 20260903162027 | 72 | 0.0 | 2.0 | 0.00 | 0.04 | 0.04 | 43 | 1015.6 | |
| 20260903161527 | 71 | 0.0 | 2.0 | 0.00 | 0.04 | 0.04 | 43 | 1015.8 | |
| 20260903161027 | 71 | 0.0 | 0.0 | 0.00 | 0.04 | 0.04 | 43 | 1015.6 | |
| 20260903160527 | 71 | 0.0 | 0.0 | 0.00 | 0.04 | 0.04 | 44 | 1015.7 | |
| 20260903160027 | 70 | 55 | 1.0 | 2.0 | 0.00 | 0.04 | 0.04 | 44 | 1015.7 |
| 20260903155527 | 70 | 22 | 2.0 | 5.0 | 0.00 | 0.04 | 0.04 | 44 | 1015.7 |
| 20260903155026 | 70 | 330 | 1.0 | 4.0 | 0.00 | 0.04 | 0.04 | 44 | 1016.0 |
| 20260903154527 | 70 | 0.0 | 0.0 | 0.00 | 0.04 | 0.04 | 44 | 1015.9 | |
| 20260903154026 | 70 | 0.0 | 0.0 | 0.00 | 0.04 | 0.04 | 44 | 1015.9 | |
| 20260903153527 | 70 | 0.0 | 0.0 | 0.00 | 0.04 | 0.04 | 44 | 1015.7 | |
| 20260903153027 | 70 | 0.0 | 0.0 | 0.00 | 0.04 | 0.04 | 45 | 1015.8 | |
| 20260903152527 | 70 | 0.0 | 0.0 | 0.00 | 0.04 | 0.04 | 45 | 1015.8 | |
| 20260903152026 | 69 | 0.0 | 0.0 | 0.00 | 0.04 | 0.04 | 45 | 1015.8 | |
| 20260903151527 | 69 | 0.0 | 0.0 | 0.00 | 0.04 | 0.04 | 45 | 1015.9 | |
| 20260903151027 | 69 | 0.0 | 0.0 | 0.00 | 0.04 | 0.04 | 45 | 1015.9 | |
| 20260903150546 | 69 | 0.0 | 1.0 | 0.00 | 0.04 | 0.04 | 45 | 1016.0 | |
| 20260903150027 | 69 | 0.0 | 2.0 | 0.00 | 0.04 | 0.04 | 45 | 1015.9 | |
| 20260903145527 | 69 | 353 | 1.0 | 4.0 | 0.00 | 0.04 | 0.04 | 45 | 1015.9 |
| 20260903145027 | 69 | 0.0 | 0.0 | 0.00 | 0.04 | 0.04 | 45 | 1015.9 | |
| 20260903144527 | 69 | 0.0 | 0.0 | 0.00 | 0.04 | 0.04 | 45 | 1016.0 | |
| 20260903144046 | 68 | 0.0 | 0.0 | 0.00 | 0.04 | 0.04 | 45 | 1016.0 | |
| 20260903143527 | 68 | 0.0 | 0.0 | 0.00 | 0.04 | 0.04 | 45 | 1015.8 | |
| 20260903143027 | 68 | 0.0 | 0.0 | 0.00 | 0.04 | 0.04 | 45 | 1015.8 | |
| 20260903142527 | 68 | 0.0 | 0.0 | 0.00 | 0.04 | 0.04 | 45 | 1015.8 | |
| 20260903142027 | 68 | 0.0 | 0.0 | 0.00 | 0.04 | 0.04 | 45 | 1015.9 | |
| 20260903141547 | 67 | 0.0 | 0.0 | 0.00 | 0.04 | 0.04 | 45 | 1015.9 | |
| 20260903141047 | 67 | 0.0 | 0.0 | 0.00 | 0.04 | 0.04 | 45 | 1016.1 | |
| 20260903140607 | 67 | 0.0 | 0.0 | 0.00 | 0.04 | 0.04 | 46 | 1016.0 | |
| 20260903140047 | 66 | 0.0 | 0.0 | 0.00 | 0.04 | 0.04 | 45 | 1016.1 | |
| 20260903135526 | 66 | 0.0 | 0.0 | 0.00 | 0.04 | 0.04 | 45 | 1016.1 | |
| 20260903135026 | 65 | 0.0 | 0.0 | 0.00 | 0.04 | 0.04 | 46 | 1016.2 | |
| 20260903134547 | 65 | 0.0 | 0.0 | 0.00 | 0.04 | 0.04 | 46 | 1016.0 | |
| 20260903134027 | 65 | 0.0 | 0.0 | 0.00 | 0.04 | 0.04 | 45 | 1016.2 | |
| 20260903133527 | 64 | 0.0 | 0.0 | 0.00 | 0.04 | 0.04 | 45 | 1016.3 | |
| 20260903133026 | 64 | 0.0 | 0.0 | 0.00 | 0.04 | 0.04 | 46 | 1016.4 | |
| 20260903132526 | 64 | 0.0 | 0.0 | 0.00 | 0.04 | 0.04 | 46 | 1016.6 | |
| 20260903132027 | 63 | 0.0 | 0.0 | 0.00 | 0.04 | 0.04 | 45 | 1016.7 | |
| 20260903131526 | 63 | 0.0 | 0.0 | 0.00 | 0.04 | 0.04 | 45 | 1016.7 | |
| 20260903131046 | 63 | 0.0 | 0.0 | 0.00 | 0.04 | 0.04 | 45 | 1016.7 | |
| 20260903130526 | 63 | 0.0 | 0.0 | 0.00 | 0.04 | 0.04 | 45 | 1016.6 | |
| 20260903130046 | 63 | 0.0 | 0.0 | 0.00 | 0.04 | 0.04 | 46 | 1016.6 | |
| 20260903125546 | 63 | 0.0 | 0.0 | 0.00 | 0.04 | 0.04 | 46 | 1016.5 | |
| 20260903125026 | 63 | 0.0 | 0.0 | 0.00 | 0.04 | 0.04 | 46 | 1016.6 | |
| 20260903124526 | 63 | 0.0 | 0.0 | 0.00 | 0.04 | 0.04 | 46 | 1016.7 | |
| 20260903124027 | 62 | 0.0 | 0.0 | 0.00 | 0.04 | 0.04 | 46 | 1016.8 | |
| 20260903123526 | 62 | 0.0 | 0.0 | 0.00 | 0.04 | 0.04 | 46 | 1017.0 | |
| 20260903123026 | 62 | 0.0 | 0.0 | 0.00 | 0.04 | 0.04 | 46 | 1017.0 | |
| 20260903122546 | 62 | 0.0 | 0.0 | 0.00 | 0.04 | 0.04 | 46 | 1017.0 | |
| 20260903122026 | 62 | 0.0 | 0.0 | 0.00 | 0.04 | 0.04 | 46 | 1017.2 | |
| 20260903121526 | 62 | 0.0 | 0.0 | 0.00 | 0.04 | 0.04 | 46 | 1017.1 | |
| 20260903121046 | 62 | 0.0 | 0.0 | 0.00 | 0.04 | 0.04 | 46 | 1017.0 | |
| 20260903120526 | 62 | 0.0 | 0.0 | 0.00 | 0.04 | 0.04 | 46 | 1017.3 | |
| 20260903120026 | 62 | 0.0 | 0.0 | 0.00 | 0.04 | 0.04 | 45 | 1017.3 | |
| 20260903115546 | 62 | 0.0 | 0.0 | 0.00 | 0.04 | 0.04 | 45 | 1017.3 | |
| 20260903115026 | 62 | 0.0 | 0.0 | 0.00 | 0.04 | 0.04 | 45 | 1017.4 | |
| 20260903114526 | 62 | 0.0 | 0.0 | 0.00 | 0.04 | 0.04 | 45 | 1017.3 | |
| 20260903114026 | 62 | 0.0 | 0.0 | 0.00 | 0.04 | 0.04 | 45 | 1017.3 | |
| 20260903113546 | 62 | 0.0 | 0.0 | 0.00 | 0.04 | 0.04 | 45 | 1017.2 | |
| 20260903113026 | 62 | 0.0 | 0.0 | 0.00 | 0.04 | 0.04 | 45 | 1017.3 | |
| 20260903112526 | 62 | 0.0 | 0.0 | 0.00 | 0.04 | 0.04 | 46 | 1017.3 | |
| 20260903112046 | 62 | 0.0 | 0.0 | 0.00 | 0.04 | 0.04 | 45 | 1017.4 | |
| 20260903111606 | 62 | 0.0 | 0.0 | 0.00 | 0.04 | 0.04 | 46 | 1017.5 | |
| 20260903111026 | 62 | 0.0 | 0.0 | 0.00 | 0.04 | 0.04 | 46 | 1017.4 | |
| 20260903110526 | 62 | 0.0 | 0.0 | 0.00 | 0.04 | 0.04 | 46 | 1017.6 | |
| 20260903110026 | 61 | 0.0 | 0.0 | 0.00 | 0.04 | 0.04 | 45 | 1017.5 | |
| 20260903105526 | 62 | 0.0 | 0.0 | 0.00 | 0.04 | 0.04 | 45 | 1017.6 | |
| 20260903105026 | 61 | 0.0 | 0.0 | 0.00 | 0.04 | 0.04 | 46 | 1017.5 | |
| 20260903104526 | 61 | 0.0 | 0.0 | 0.00 | 0.04 | 0.04 | 45 | 1017.5 | |
| 20260903104026 | 61 | 0.0 | 0.0 | 0.00 | 0.04 | 0.04 | 45 | 1017.4 | |
| 20260903103526 | 61 | 0.0 | 0.0 | 0.00 | 0.04 | 0.04 | 46 | 1017.3 | |
| 20260903103027 | 61 | 0.0 | 0.0 | 0.00 | 0.04 | 0.04 | 45 | 1017.2 | |
| 20260903102526 | 61 | 0.0 | 0.0 | 0.00 | 0.04 | 0.04 | 45 | 1017.2 | |
| 20260903102026 | 61 | 0.0 | 0.0 | 0.00 | 0.04 | 0.04 | 45 | 1017.2 | |
| 20260903101546 | 61 | 0.0 | 0.0 | 0.00 | 0.04 | 0.04 | 46 | 1017.2 | |
| 20260903101026 | 61 | 0.0 | 0.0 | 0.00 | 0.04 | 0.04 | 45 | 1017.1 | |
| 20260903100526 | 61 | 0.0 | 0.0 | 0.00 | 0.04 | 0.04 | 45 | 1017.1 | |
| 20260903100026 | 61 | 0.0 | 0.0 | 0.00 | 0.04 | 0.04 | 45 | 1017.1 | |
| 20260903095526 | 61 | 0.0 | 0.0 | 0.00 | 0.04 | 0.04 | 45 | 1017.2 | |
| 20260903095026 | 61 | 0.0 | 0.0 | 0.00 | 0.04 | 0.04 | 45 | 1017.2 | |
| 20260903094526 | 61 | 0.0 | 0.0 | 0.00 | 0.04 | 0.04 | 45 | 1017.1 | |
| 20260903094026 | 61 | 0.0 | 0.0 | 0.00 | 0.04 | 0.04 | 45 | 1017.3 | |
| 20260903093526 | 61 | 0.0 | 0.0 | 0.01 | 0.04 | 0.04 | 45 | 1017.3 | |
| 20260903093026 | 61 | 0.0 | 0.0 | 0.01 | 0.04 | 0.04 | 45 | 1017.4 | |
| 20260903092526 | 61 | 0.0 | 0.0 | 0.01 | 0.04 | 0.04 | 45 | 1017.4 | |
| 20260903092046 | 61 | 0.0 | 0.0 | 0.01 | 0.04 | 0.04 | 45 | 1017.4 | |
| 20260903091526 | 61 | 0.0 | 0.0 | 0.01 | 0.04 | 0.04 | 45 | 1017.5 | |
| 20260903091046 | 61 | 0.0 | 0.0 | 0.01 | 0.04 | 0.04 | 45 | 1017.5 | |
| 20260903090526 | 61 | 0.0 | 0.0 | 0.01 | 0.04 | 0.04 | 45 | 1017.6 | |
| 20260903090046 | 61 | 0.0 | 0.0 | 0.01 | 0.04 | 0.04 | 45 | 1017.8 | |
| 20260903085526 | 61 | 0.0 | 0.0 | 0.01 | 0.04 | 0.04 | 45 | 1017.9 | |
| 20260903085026 | 61 | 0.0 | 0.0 | 0.01 | 0.04 | 0.04 | 45 | 1017.9 | |
| 20260903084526 | 61 | 0.0 | 0.0 | 0.01 | 0.04 | 0.04 | 45 | 1017.9 | |
| 20260903084026 | 61 | 0.0 | 0.0 | 0.01 | 0.04 | 0.04 | 45 | 1017.7 | |
| 20260903083526 | 61 | 0.0 | 0.0 | 0.00 | 0.03 | 0.03 | 45 | 1017.9 | |
| 20260903083026 | 61 | 0.0 | 0.0 | 0.00 | 0.03 | 0.03 | 45 | 1017.7 | |
| 20260903082606 | 61 | 0.0 | 0.0 | 0.00 | 0.03 | 0.03 | 45 | 1017.7 | |
| 20260903082026 | 61 | 0.0 | 0.0 | 0.00 | 0.03 | 0.03 | 45 | 1017.7 | |
| 20260903081526 | 61 | 0.0 | 0.0 | 0.00 | 0.03 | 0.03 | 45 | 1017.6 | |
| 20260903081106 | 61 | 0.0 | 0.0 | 0.00 | 0.03 | 0.03 | 45 | 1017.8 | |
| 20260903080546 | 61 | 0.0 | 0.0 | 0.00 | 0.03 | 0.03 | 45 | 1017.7 | |
| 20260903080106 | 61 | 0.0 | 0.0 | 0.00 | 0.03 | 0.03 | 45 | 1017.5 | |
| 20260903075526 | 61 | 0.0 | 0.0 | 0.00 | 0.03 | 0.03 | 45 | 1017.7 | |
| 20260903075025 | 61 | 0.0 | 0.0 | 0.00 | 0.03 | 0.03 | 45 | 1017.7 | |
| 20260903074525 | 61 | 0.0 | 0.0 | 0.00 | 0.03 | 0.03 | 45 | 1017.7 | |
| 20260903074026 | 61 | 0.0 | 0.0 | 0.00 | 0.03 | 0.03 | 45 | 1017.7 | |
| 20260903073526 | 61 | 0.0 | 0.0 | 0.00 | 0.03 | 0.03 | 45 | 1018.0 | |
| 20260903073026 | 61 | 0.0 | 0.0 | 0.00 | 0.03 | 0.03 | 45 | 1018.0 | |
| 20260903072526 | 61 | 0.0 | 0.0 | 0.01 | 0.03 | 0.03 | 45 | 1018.0 | |
| 20260903072026 | 61 | 0.0 | 0.0 | 0.01 | 0.03 | 0.03 | 45 | 1018.0 | |
| 20260903071526 | 61 | 0.0 | 0.0 | 0.01 | 0.03 | 0.03 | 45 | 1018.1 | |
| 20260903071026 | 61 | 0.0 | 0.0 | 0.02 | 0.03 | 0.03 | 44 | 1018.0 | |
| 20260903070526 | 61 | 0.0 | 0.0 | 0.02 | 0.03 | 0.03 | 44 | 1018.0 | |
| 20260903070026 | 61 | 0.0 | 0.0 | 0.03 | 0.03 | 0.03 | 44 | 1017.5 | |
| 20260903065546 | 61 | 0.0 | 0.0 | 0.03 | 0.03 | 0.03 | 43 | 1017.9 | |
| 20260903065026 | 61 | 0.0 | 0.0 | 0.03 | 0.03 | 0.03 | 43 | 1017.9 | |
| 20260903064526 | 61 | 0.0 | 0.0 | 0.03 | 0.03 | 0.03 | 43 | 1017.9 | |
| 20260903064046 | 61 | 0.0 | 0.0 | 0.03 | 0.03 | 0.03 | 42 | 1017.7 | |
| 20260903063526 | 62 | 0.0 | 0.0 | 0.03 | 0.03 | 0.03 | 42 | 1018.0 | |
| 20260903063026 | 62 | 0.0 | 0.0 | 0.03 | 0.03 | 0.03 | 41 | 1018.4 | |
| 20260903062526 | 62 | 0.0 | 0.0 | 0.02 | 0.02 | 0.02 | 41 | 1018.2 | |
| 20260903062026 | 62 | 0.0 | 0.0 | 0.02 | 0.02 | 0.02 | 41 | 1018.5 | |
| 20260903061526 | 62 | 0.0 | 0.0 | 0.02 | 0.02 | 0.02 | 41 | 1018.5 | |
| 20260903061026 | 62 | 0.0 | 0.0 | 0.01 | 0.01 | 0.01 | 41 | 1018.8 | |
| 20260903060546 | 62 | 0.0 | 0.0 | 0.01 | 0.01 | 0.01 | 41 | 1019.0 | |
| 20260903060026 | 62 | 0.0 | 0.0 | 0.00 | 0.00 | 0.00 | 41 | 1019.4 | |
| 20260903055526 | 62 | 0.0 | 0.0 | 0.00 | 0.00 | 0.00 | 42 | 1019.4 | |
| 20260903055026 | 62 | 0.0 | 0.0 | 0.00 | 0.00 | 0.00 | 43 | 1019.6 | |
| 20260903054526 | 62 | 0.0 | 0.0 | 0.00 | 0.00 | 0.00 | 43 | 1019.7 | |
| 20260903054025 | 62 | 0.0 | 0.0 | 0.00 | 0.00 | 0.00 | 43 | 1019.7 | |
| 20260903053605 | 62 | 0.0 | 0.0 | 0.00 | 0.00 | 0.00 | 43 | 1019.8 | |
| 20260903053026 | 62 | 0.0 | 0.0 | 0.00 | 0.00 | 0.00 | 43 | 1019.9 | |
| 20260903052526 | 62 | 0.0 | 0.0 | 0.00 | 0.00 | 0.00 | 43 | 1019.9 | |
| 20260903052026 | 62 | 0.0 | 0.0 | 0.00 | 0.00 | 0.00 | 43 | 1020.0 | |
| 20260903051556 | 62 | 0.0 | 0.0 | 0.00 | 0.00 | 0.00 | 43 | 1020.1 | |
| 20260903051045 | 62 | 0.0 | 0.0 | 0.00 | 0.00 | 0.00 | 43 | 1020.1 | |
| 20260903050606 | 62 | 0.0 | 0.0 | 0.00 | 0.00 | 0.00 | 43 | 1020.2 | |
| 20260903050025 | 63 | 0.0 | 0.0 | 0.00 | 0.00 | 0.00 | 43 | 1020.2 | |
| 20260903045525 | 63 | 0.0 | 0.0 | 0.00 | 0.00 | 0.00 | 43 | 1020.0 | |
| 20260903045025 | 63 | 0.0 | 0.0 | 0.00 | 0.00 | 0.00 | 43 | 1020.0 | |
| 20260903044525 | 63 | 0.0 | 0.0 | 0.00 | 0.00 | 0.00 | 44 | 1020.0 | |
| 20260903044025 | 63 | 0.0 | 0.0 | 0.00 | 0.00 | 0.00 | 44 | 1020.0 | |
| 20260903043525 | 63 | 0.0 | 0.0 | 0.00 | 0.00 | 0.00 | 44 | 1020.1 | |
| 20260903043026 | 63 | 0.0 | 0.0 | 0.00 | 0.00 | 0.00 | 44 | 1020.2 | |
| 20260903042525 | 63 | 0.0 | 0.0 | 0.00 | 0.00 | 0.00 | 44 | 1020.3 | |
| 20260903042025 | 63 | 0.0 | 0.0 | 0.00 | 0.00 | 0.00 | 44 | 1020.2 | |
| 20260903041526 | 63 | 0.0 | 0.0 | 0.00 | 0.00 | 0.00 | 44 | 1020.3 | |
| 20260903041025 | 63 | 0.0 | 0.0 | 0.00 | 0.00 | 0.00 | 44 | 1020.3 | |
| 20260903040526 | 63 | 0.0 | 0.0 | 0.00 | 0.00 | 0.00 | 43 | 1020.4 | |
| 20260903040025 | 63 | 0.0 | 0.0 | 0.00 | 0.00 | 0.00 | 44 | 1020.3 | |
| 20260903035526 | 63 | 0.0 | 0.0 | 0.00 | 0.00 | 0.00 | 44 | 1020.3 | |
| 20260903035026 | 63 | 0.0 | 0.0 | 0.00 | 0.00 | 0.00 | 44 | 1020.1 | |
| 20260903034525 | 63 | 0.0 | 0.0 | 0.00 | 0.00 | 0.00 | 43 | 1020.0 | |
| 20260903034025 | 63 | 0.0 | 0.0 | 0.00 | 0.00 | 0.00 | 43 | 1020.0 | |
| 20260903033526 | 63 | 0.0 | 0.0 | 0.00 | 0.00 | 0.00 | 44 | 1020.0 | |
| 20260903033025 | 63 | 0.0 | 0.0 | 0.00 | 0.00 | 0.00 | 43 | 1020.1 | |
| 20260903032526 | 63 | 0.0 | 0.0 | 0.00 | 0.00 | 0.00 | 44 | 1020.1 | |
| 20260903032026 | 63 | 0.0 | 0.0 | 0.00 | 0.00 | 0.00 | 44 | 1020.0 | |
| 20260903031526 | 63 | 0.0 | 0.0 | 0.00 | 0.00 | 0.00 | 44 | 1020.1 | |
| 20260903031026 | 63 | 0.0 | 0.0 | 0.00 | 0.00 | 0.00 | 44 | 1020.1 | |
| 20260903030526 | 63 | 0.0 | 0.0 | 0.00 | 0.00 | 0.00 | 44 | 1020.0 | |
| 20260903030046 | 63 | 0.0 | 0.0 | 0.00 | 0.00 | 0.00 | 44 | 1020.1 | |
| 20260903025525 | 63 | 0.0 | 0.0 | 0.00 | 0.00 | 0.00 | 44 | 1020.4 | |
| 20260903025025 | 63 | 0.0 | 0.0 | 0.00 | 0.00 | 0.00 | 44 | 1020.7 | |
| 20260903024525 | 63 | 0.0 | 0.0 | 0.00 | 0.00 | 0.00 | 44 | 1020.7 | |
| 20260903024105 | 63 | 0.0 | 0.0 | 0.00 | 0.00 | 0.00 | 44 | 1020.9 | |
| 20260903023526 | 63 | 0.0 | 0.0 | 0.00 | 0.00 | 0.00 | 44 | 1021.1 | |
| 20260903023026 | 63 | 0.0 | 0.0 | 0.00 | 0.00 | 0.00 | 44 | 1021.3 | |
| 20260903022606 | 63 | 0.0 | 0.0 | 0.00 | 0.00 | 0.00 | 44 | 1021.2 | |
| 20260903022025 | 63 | 0.0 | 0.0 | 0.00 | 0.00 | 0.00 | 44 | 1021.3 | |
| 20260903021525 | 63 | 0.0 | 0.0 | 0.00 | 0.00 | 0.00 | 44 | 1021.4 | |
| 20260903021025 | 63 | 0.0 | 0.0 | 0.00 | 0.00 | 0.00 | 44 | 1021.4 | |
| 20260903020525 | 63 | 0.0 | 0.0 | 0.00 | 0.00 | 0.00 | 44 | 1021.5 | |
| 20260903020025 | 63 | 0.0 | 0.0 | 0.00 | 0.00 | 0.00 | 43 | 1021.6 | |
| 20260903015525 | 63 | 0.0 | 0.0 | 0.00 | 0.00 | 0.00 | 44 | 1021.5 | |
| 20260903015025 | 63 | 0.0 | 0.0 | 0.00 | 0.00 | 0.00 | 44 | 1021.7 | |
| 20260903014525 | 63 | 0.0 | 0.0 | 0.00 | 0.00 | 0.00 | 44 | 1021.7 | |
| 20260903014025 | 64 | 0.0 | 0.0 | 0.00 | 0.00 | 0.00 | 44 | 1021.5 | |
| 20260903013525 | 64 | 0.0 | 0.0 | 0.00 | 0.00 | 0.00 | 44 | 1021.5 | |
| 20260903013025 | 64 | 0.0 | 0.0 | 0.00 | 0.00 | 0.00 | 44 | 1021.3 | |
| 20260903012525 | 64 | 0.0 | 0.0 | 0.00 | 0.00 | 0.00 | 44 | 1021.2 | |
| 20260903012025 | 64 | 0.0 | 0.0 | 0.00 | 0.00 | 0.00 | 44 | 1021.2 | |
| 20260903011525 | 64 | 0.0 | 0.0 | 0.00 | 0.00 | 0.00 | 44 | 1021.2 | |
| 20260903011025 | 64 | 0.0 | 0.0 | 0.00 | 0.00 | 0.00 | 44 | 1021.0 | |
| 20260903010525 | 64 | 0.0 | 0.0 | 0.00 | 0.00 | 0.00 | 44 | 1020.9 | |
| 20260903010025 | 64 | 0.0 | 0.0 | 0.00 | 0.00 | 0.00 | 45 | 1020.8 | |
| 20260903005525 | 64 | 0.0 | 0.0 | 0.00 | 0.00 | 0.00 | 45 | 1020.9 |